Hourly Data Report for October 12, 2013

All times are specified in Local Standard Time (LST). Add 1 hour to adjust for Daylight Saving Time where and when it is observed.

PETAWAWA AWOS 2
ONTARIO

45°57'00.000" N
77°19'00.000" W
130.10 m
6106396
71625
YWA

Download Data

Hourly Data (October 2013)
Hourly Data Report for October 12, 2013
Temp Definition
°C
Dew Point Temp Definition
°C
Rel Hum Definition
%
Wind Dir Definition
10's deg

Wind Spd Definition
km/h
Visibility Definition
km
Stn Press Definition
kPa
Hmdx Definition


Wind Chill Definition


Weather Definition


TIME
00:00 4.8 4.7 99   0 15.0 100.65      
01:00 3.8 3.6 99 22 4 15.0 100.68      
02:00 3.6 3.3 98 22 4 15.0 100.69      
03:00 3.3 3.1 99 26 6 15.0 100.70      
04:00 3.3 3.3 100 22 4 15.0 100.74      
05:00 2.5 2.3 99   0 12.9 100.79      
06:00 2.1 2.1 100 21 4 11.3 100.83      
07:00 2.6 2.3 98   0 15.0 100.89      
08:00 6.7 6.5 99   0 15.0 100.93      
09:00 8.6 8.4 99 4 4 14.5 100.91      
10:00 12.4 9.9 85 10 7 15.0 100.90      
11:00 15.4 11.2 76 13 11 15.0 100.87      
12:00 17.0 10.7 66 13 9 15.0 100.81      
13:00 18.7 10.9 60 12 9 15.0 100.76      
14:00 19.5 10.9 58 12 11 15.0 100.73      
15:00 20.1 10.6 54 11 9 15.0 100.67      
16:00 20.2 9.6 50 11 7 15.0 100.64      
17:00 19.1 9.2 53 12 7 15.0 100.61      
18:00 17.7 10.0 61 12 7 15.0 100.64      
19:00 16.0 10.3 69 11 4 15.0 100.67      
20:00 14.6 10.4 76 10 4 15.0 100.71      
21:00 8.9 7.8 93   0 15.0 100.77      
22:00 11.0 9.9 93 11 6 15.0 100.77      
23:00 11.4 9.8 90 11 4 15.0 100.75      

Notes on Data Quality.

Legend

  • E = Estimated
  • M = Missing
  • NA = Not Available
  • ‡ = Partner data that is not subject to review by the National Climate Archives
Date modified: